Location: Agadir Irigdalene
(31.2522°N, 8.7797°W)
Time: 03:54:58
(UTC+00:00)

SL-8 R/B - Pass Details

Date: 01 December 2020
Orbit: 656 x 667 km, 48.4° (Epoch: 26 January)

Event Time Altitude Azimuth Distance (km) Brightness Sun altitude
Rises 19:07:08 0° 227° (SW) 2,965 8.1 -19.9°
Reaches altitude 10° 19:09:28 10° 227° (SW) 2,056 7.1 -20.4°
Maximum altitude 19:14:13 87° 139° (SE) 658 3.5 -21.4°
Enters shadow 19:15:14 56° 53° (NE) 781 3.7 -21.6°
